STARLINK-32719, 62448

Orbit data source: Space-Track

STARLINK-32719, 62448 is a payload satellite owned by SpaceX/Seattle (US) in LEO that was launched on Sun, 29 Dec 2024 UTC via an FALCON 9 launch vehicle from the Air Force Western Test Range (AFWTR). Payload-class satellites include a variety of spacecraft equipped with specific instruments for various scientific and technological missions. These include communications satellites like Starlink; space stations such as the ISS; scientific satellites like the Hubble; Earth observation satellites from companies like Planet Labs, Umbra, and HawkEye 360; GPS; miniature CubeSats for education and research; and military/defense satellites.

Loading next visibility...
Identifier
62448, 2024-251S
Orbit
LEO
Country
Flag of USUS
Related business
Manufacturer
SpaceX/Seattle
Mission
Operational Commercial Communications
Bus & Motor
STARLINK V2M, Unknown motor
Mass
730 kg wet, ~700 kg dry
Launch date (UTC)
2024-12-29 (1 year ago)
Launch vehicle
FALCON 9
Launch site
Air Force Western Test Range (AFWTR)
Object type
Payload
Rocket body
Debris
Shape & HBR
Box + 2 Pan, 17.7 m
Radar Cross Section
33.884 m², Large (>1 m²)

Expand to show TLE details & history
Last TLE update: 10 hours ago

TLE from 10 hours ago
0 STARLINK-32719
1 62448U 24251S   26171.42118586  .00008565  00000-0  26432-3 0  9994
2 62448  53.1586 218.2243 0001287  81.3966 278.7183 15.34401495 83505
Epoch: 2026-06-20T10:06Z
TLE epoch observation values (Epoch: 2026-06-20T10:06:30.458Z)
Latitude
0.00004°
Longitude
157.96137°
Altitude
463.467 km
Speed
7.636 km/s
True Right ascension
14h 32m 53s
True Declination
0° 00' 00"
Sunlit
Object was in full shadow at epoch
Visualization orbit readout
Latitude
Unknown
Longitude
Unknown
Altitude
Unknown
Speed
Unknown
Apparent Right ascension
Unknown
Apparent Declination
Unknown
Sunlit
N/A
Visualization observer readout
Local Sidereal Time
07:17:45
Azimuth
Unknown
Elevation
Unknown
Doppler factor
Unknown
Orbital elements
Apogee altitude
463.836 km
Perigee altitude
462.075 km
Semi-major axis
6,841.093 km
Eccentricity
0.00013
Inclination
53.1586°
RAAN
218.2243°
Arg. of periapsis
81.3966°
True anomaly
278.70372°
Mean anomaly
278.7183°
Eccentric anomaly
278.71101°
Mean motion
3.83579 °/min
Orbital period
93.85 mins
BSTAR
0.00026432
Loading maneuver chart data...
Computing Atmospheric mass density...
Loading historical data...
Loading historical data...
Loading historical data...
Loading historical data...
Loading historical data...
Loading historical data...
Loading historical data...

Documentation

Showing up to 5 results
|